Вернуться в каталог

GEISAT PRECURSOR

АктивенНаукаSSO
NORAD 56934·PAYLOAD·🇪🇸 Spain

Запущен Jun 12, 2023 с Vandenberg Space Force Base

Loading…

Ближайшие Пролёты (ближайшие 24 часа)

TLE

СвежийSource: Space-Track

Эпоха: Sep 14, 2026, 15:29 UTC

1 56934U 23084C   26257.64533353  .00005887  00000-0  17174-3 0  9999
2 56934  97.6352  41.6850 0006000  38.3239 321.8429 15.35744620181252

Отслеживайте GEISAT PRECURSOR в реальном времени с AllMySat

Download on the App Store